sat.trackr.live / text

‹ back to catalog

STARLINK-37965

NORAD 69753 · 2026-150Q

PAYLOAD ACTIVE UNKNOWN

§ Identity

Operator
Country
US
Launch date
2026-07-02
Launch site
AFWTR
Launch vehicle
Mass (kg)
RCS (m²)

Purposes: comms

External: N2YO · Heavens-Above · Gunter

§ Orbital elements

Epoch: 2026-09-20T00:17:49.090272Z

Period
93.90 min
Inclination
97.2868°
Eccentricity
0.0002654
Mean motion
15.33469076 rev/d
Perigee alt
463.7 km
Apogee alt
467.3 km
Semi-major
6,843.6 km
B*
5.5210e-4
RAAN
101.9873°
Arg perigee
81.4714°
Mean anomaly
278.6829°
Rev number
1,366

§ Raw data

STARLINK-379651 69753U 26150Q   26263.01237373  .00017806  00000+0  55210-3 0  99962 69753  97.2868 101.9873 0002654  81.4714 278.6829 15.33469076 13665

JSON: /api/v1/satellites/69753 · /tle

For live sub-satellite position, see the globe view (requires WebGL).

§ Visibility from observer

Set your observer location to see the next 7 days of passes ≥ 10°. The values pass through the URL so the page stays shareable.

No JS? Fill the form by hand. The geolocation button needs JavaScript.